Location: Haulchin
(50.3172°N, 3.4360°E)
Time: 19:56:34
(UTC+00:00)

Cosmos 2333 Rocket - Pass Details

Date: 16 August 2024
Orbit: 838 x 863 km, 70.8° (Epoch: 09 September)

Event Time Altitude Azimuth Distance (km) Brightness Sun altitude
Exits shadow 00:08:47 60° 242° (WSW) 984 2.3 -25.9°
Maximum altitude 00:09:46 74° 301° (WNW) 901 2.3 -25.9°
Drops below altitude 10° 00:15:33 10° 27° (NNE) 2,514 5.6 -25.8°
Sets 00:18:03 0° 30° (NNE) 3,455 6.5 -25.8°
